Temperature
22 22 22 23 23 23 22 20 20 21 21 21 21 21 22 23 24 23 22 22 22 22 22 22 21 21 20 20 19 19 18 18 17 17 16 16 15 15 14 14 14 13 13 13
22 23 23 23 23 23 23 23 22 22 21 21 22 23 23 23 23 22 22 23 23 22 22 22 21 21 20 20 19 19 18 18 17 17 16 16 15 15 14 14 14 13 13 13
20 21 22 21 22 22 22 22 22 21 21 21 20 20 22 22 22 22 23 23 23 22 22 22 22 21 21 20 19 19 18 18 17 17 16 16 15 15 15 14 14 13 13 13
18 20 21 21 22 22 22 21 20 20 20 20 20 22 23 24 23 23 23 23 23 23 22 22 22 21 21 20 20 19 18 18 17 17 17 16 15 15 15 14 14 13 13 13
17 19 20 21 21 21 20 19 18 19 19 20 21 21 21 23 23 24 24 24 23 23 23 22 22 21 20 20 19 19 18 18 17 17 17 16 15 15 15 14 14 13 13 13
17 19 19 20 21 21 21 19 18 18 18 19 20 18 19 22 23 23 23 23 23 23 22 22 22 21 20 20 19 19 19 18 17 17 16 16 15 15 14 14 14 14 13 13
17 18 18 19 19 20 20 18 17 17 18 18 18 18 21 22 23 23 23 23 23 22 22 22 21 21 20 20 19 19 18 18 17 16 16 16 15 15 14 14 14 13 13 13
16 17 18 18 18 18 17 17 17 18 19 19 19 20 21 21 22 22 22 22 22 22 21 21 21 20 20 20 19 18 18 17 17 16 16 15 15 14 14 14 13 13 13 13
16 16 16 16 17 17 18 18 18 19 19 19 19 19 20 20 20 21 21 21 21 21 21 20 20 20 19 19 18 18 17 17 16 16 15 15 14 14 14 14 13 13 13 13
15 15 16 17 17 18 18 18 19 19 19 19 19 19 19 19 19 19 20 20 20 20 20 19 19 18 18 18 17 17 16 16 16 15 15 14 14 14 13 13 13 13 13 13
15 15 15 16 18 18 18 18 18 18 18 18 18 18 18 18 18 18 18 18 18 18 18 18 18 17 17 17 16 16 15 15 15 14 14 14 14 13 13 13 13 13 13 12
15 15 15 16 18 18 18 18 18 18 17 17 17 17 17 17 17 17 17 17 17 17 17 17 16 16 16 15 15 15 15 14 14 14 13 13 13 13 13 13 13 13 12 12
18 18 18 18 18 18 17 17 17 17 17 16 16 16 16 16 16 16 16 16 16 16 15 15 15 15 14 14 14 14 14 13 13 13 13 12 12 12 12 12 12 12 12 12
19 18 17 17 17 17 17 17 17 16 16 16 16 16 16 16 15 15 15 15 15 15 14 14 14 14 13 13 13 13 13 12 12 12 12 12 12 12 12 12 12 12 12 12
18 18 17 17 17 17 17 16 16 16 16 15 15 15 15 15 15 14 14 14 14 14 13 13 13 13 12 12 12 12 12 12 11 11 11 11 11 11 11 11 11 11 11 11
17 17 17 16 16 16 16 16 16 15 15 15 15 14 14 14 14 13 13 13 13 13 12 12 12 12 12 12 11 11 11 11 11 11 11 11 11 11 11 11 11 11 11 11
16 16 16 16 16 16 15 15 15 15 15 14 14 14 14 13 13 13 12 12 12 12 12 11 11 11 11 11 11 11 10 10 10 10 10 10 10 10 10 10 10 10 10 10
15 15 15 15 15 15 15 15 14 14 14 14 14 13 13 13 12 12 12 12 12 11 11 11 11 11 11 11 10 10 10 10 10 9 9 9 9 9 9 9 10 10 10 10
15 15 15 15 15 14 14 14 14 14 13 13 13 13 13 12 12 12 12 11 11 11 11 11 11 10 10 10 10 10 10 9 9 9 9 9 9 9 9 9 9 9 9 9
15 14 14 14 14 14 14 13 13 13 13 13 13 12 12 12 12 12 11 11 11 11 11 11 10 10 10 10 10 9 9 9 9 8 8 8 8 8 8 8 9 8 9 9
14 14 13 13 13 13 13 13 13 12 12 12 12 12 12 12 12 11 11 11 11 11 11 10 10 10 10 10 9 9 9 9 8 8 8 8 8 8 8 8 8 8 8 8
13 13 13 13 13 12 12 12 12 12 12 12 12 12 12 12 11 11 11 11 11 11 10 10 10 10 10 9 9 9 8 8 8 8 7 7 7 7 7 7 7 7 8 8
12 12 12 12 12 12 12 12 12 12 12 12 12 12 12 11 11 11 11 11 10 10 10 10 10 9 9 9 9 8 8 8 7 7 7 7 6 6 6 7 7 7 7 7
12 12 12 12 12 12 12 12 12 12 11 11 11 11 11 11 11 11 11 10 10 10 10 9 9 9 9 8 8 8 7 7 7 6 6 6 6 6 6 6 6 7 7 7
12 12 12 12 11 11 11 11 11 11 11 11 11 11 11 10 10 10 10 10 10 9 9 9 9 8 8 8 7 7 6 6 6 6 6 5 5 5 6 6 6 6 7 7
11 11 11 11 11 11 11 10 10 10 10 10 10 10 10 10 10 10 9 9 9 9 8 8 8 7 7 7 6 6 6 5 5 5 5 5 5 5 5 5 5 6 6 6
10 10 10 10 10 10 10 10 10 9 9 9 9 9 9 9 9 9 9 9 8 8 8 7 7 7 6 6 5 5 5 5 5 4 4 4 4 5 5 5 5 5 6 6
Wind_Speed
5 6 5 5 6 5 5 8 9 10 10 12 13 13 12 12 12 14 14 14 15 15 13 12 11 11 11 10 9 9 9 9 9 9 8 7 7 7 7 7 7 7 6 7
2 3 4 5 7 7 6 5 5 5 7 8 8 6 7 10 13 14 15 16 16 15 14 14 13 12 10 10 10 9 10 10 9 8 8 8 8 7 7 6 6 6 6 7
3 5 3 5 6 4 3 3 2 5 7 3 4 7 9 10 11 12 13 13 14 14 14 14 14 12 12 11 9 9 9 8 8 8 8 8 7 7 7 7 6 6 7 7
1 2 4 8 4 1 2 5 4 1 1 4 6 8 7 7 11 12 11 12 13 12 12 11 11 11 10 9 9 9 8 8 7 7 8 7 6 7 7 6 6 7 7 8
3 3 6 5 3 1 3 4 8 7 5 4 3 5 2 3 6 11 12 11 12 12 12 11 11 11 10 9 9 9 8 8 7 8 7 7 7 7 6 5 6 7 7 8
3 3 5 5 5 3 3 2 6 6 6 5 6 3 3 3 3 6 7 8 9 8 8 10 11 10 11 10 9 10 10 9 8 7 8 7 8 7 5 6 7 7 8 8
3 3 6 4 7 3 3 4 2 3 3 4 3 3 4 0 2 3 4 5 7 9 9 9 9 10 10 9 10 10 8 7 7 7 7 7 6 5 6 6 6 7 8 8
3 2 6 4 3 1 4 2 1 2 4 4 3 4 2 2 2 3 4 4 5 6 6 5 7 9 9 9 8 6 6 6 6 6 6 5 6 6 6 6 7 7 7 8
5 5 3 2 1 2 4 4 2 2 1 3 2 1 2 3 2 2 2 2 3 5 4 2 3 6 7 7 5 5 5 5 5 5 5 4 5 6 6 5 6 7 6 8
1 2 2 2 0 1 2 3 2 3 4 6 6 4 5 5 5 5 5 4 4 5 4 2 2 3 3 2 3 4 4 4 3 4 5 5 5 5 6 6 7 7 7 8
2 3 1 2 2 2 2 5 7 8 8 7 7 6 6 5 5 4 5 5 5 5 3 2 2 2 2 2 3 3 2 2 3 4 5 6 6 7 8 8 9 9 8 8
7 8 7 5 3 4 7 7 8 10 10 9 9 8 7 6 5 5 6 6 6 5 4 4 4 4 3 2 2 2 2 3 4 4 5 5 6 7 10 12 15 16 16 13
6 7 5 5 5 6 8 9 10 10 10 9 8 8 8 6 6 6 6 6 5 4 5 5 5 4 4 3 2 1 2 4 4 4 5 6 6 6 8 10 12 14 16 16
10 10 8 6 7 9 11 11 11 10 9 9 8 8 8 8 7 7 6 5 5 5 5 5 5 4 4 3 3 3 3 4 5 5 5 6 7 7 7 8 8 8 10 14
8 9 8 8 9 10 9 10 11 9 8 8 8 8 8 7 7 6 5 5 6 6 5 4 4 4 4 3 3 4 4 4 5 5 6 6 7 7 7 8 8 8 7 8
9 11 11 11 10 10 10 11 10 8 7 7 7 6 6 6 5 5 5 6 5 4 3 2 2 3 3 4 4 4 5 8 8 6 6 6 7 7 7 7 7 7 7 7
11 9 10 10 9 9 9 9 8 7 6 6 4 4 5 5 5 4 4 4 3 2 1 1 3 3 3 3 3 3 5 7 10 8 7 7 7 7 7 7 7 7 8 9
10 8 8 9 8 8 8 7 7 6 5 4 4 4 3 2 1 1 2 1 2 3 3 3 3 2 3 3 3 4 5 6 6 7 7 7 7 7 7 8 8 9 8 9
9 9 8 8 8 7 6 5 4 4 3 3 3 1 1 2 3 3 2 1 2 4 5 6 5 2 3 5 5 4 5 6 7 7 7 9 8 7 7 7 7 7 8 8
7 7 8 8 7 6 5 4 3 3 2 2 1 1 2 3 4 3 3 3 5 6 6 6 4 4 5 5 6 4 5 6 7 7 7 7 7 8 8 7 7 7 7 7
8 9 8 7 6 5 4 3 3 3 4 3 2 3 4 5 5 4 3 4 7 7 6 6 4 4 4 5 6 5 5 6 6 6 6 7 7 8 8 8 7 7 7 6
6 6 6 5 4 4 4 4 4 5 5 5 5 5 5 6 6 5 5 6 7 8 5 4 4 5 6 6 4 5 5 6 6 6 6 6 7 8 8 8 7 7 7 6
3 3 3 3 3 4 5 6 6 6 7 7 7 7 7 6 5 4 5 6 5 7 5 4 5 6 7 4 4 4 5 5 5 6 6 7 7 7 8 8 7 7 6 6
2 3 4 4 4 5 7 8 8 6 6 7 6 6 5 3 4 4 5 6 6 5 3 4 5 6 6 3 4 4 4 4 5 6 6 7 6 6 7 7 7 6 6 7
4 5 5 6 5 5 7 7 6 6 6 5 5 5 3 3 3 4 4 4 4 3 2 3 4 5 4 3 3 4 4 4 4 5 6 6 6 6 7 7 7 6 5 5
4 4 4 4 4 3 3 3 3 4 4 4 4 4 4 4 4 3 3 3 2 2 2 2 2 3 2 3 3 3 3 4 5 5 6 6 6 7 7 8 8 6 4 5
5 4 4 4 4 4 3 3 3 3 3 3 4 5 5 5 4 3 3 2 2 2 2 2 2 2 2 3 4 4 4 4 4 5 5 6 6 6 7 8 6 5 5 5
Wind_Direction
219 216 199 233 258 249 216 195 194 225 215 218 210 205 204 192 179 173 174 177 178 179 179 178 177 180 178 180 180 174 173 184 199 203 203 205 211 217 220 221 226 228 233 241
289 245 251 276 291 285 271 248 230 220 231 234 203 178 179 174 167 171 178 182 181 178 174 175 176 177 175 179 181 175 180 194 198 198 201 208 214 218 222 228 233 230 232 240
285 306 352 291 261 245 289 326 195 208 230 209 154 168 176 167 160 168 178 179 177 179 180 180 180 176 179 182 178 178 186 193 196 197 204 213 217 216 222 226 227 231 239 241
199 15 249 244 258 199 75 22 7 35 72 144 168 176 171 164 167 170 174 175 178 182 184 186 180 177 178 173 172 180 187 194 198 199 209 215 215 221 227 225 227 235 241 243
147 199 263 279 306 355 95 27 14 30 37 38 66 76 48 181 166 175 176 178 182 184 183 180 179 178 170 173 177 183 194 200 201 199 206 210 217 228 230 228 237 239 242 243
144 172 233 260 294 295 105 63 353 25 25 27 53 91 264 265 175 172 173 170 170 168 170 178 184 172 169 179 183 197 203 204 202 197 200 209 220 229 230 229 240 245 250 247
169 201 252 275 309 347 141 219 293 17 23 57 77 217 249 284 118 142 144 155 159 158 171 187 179 167 176 184 200 208 201 196 198 201 207 214 221 228 233 239 248 251 256 259
152 189 252 306 3 147 191 172 186 66 57 60 32 325 338 84 103 116 115 126 142 156 175 179 165 167 181 199 208 192 183 190 202 209 217 220 222 236 239 240 250 258 262 270
174 205 255 301 185 199 162 155 168 139 117 99 100 353 22 49 49 61 79 111 133 147 151 145 155 167 188 210 186 172 180 200 214 218 225 226 226 240 248 245 247 257 258 264
137 257 268 294 233 194 175 157 124 94 85 91 98 84 63 53 52 49 46 54 69 93 105 108 130 152 184 183 158 160 186 214 222 227 244 249 246 243 245 248 250 253 254 258
163 190 135 296 239 184 125 84 77 78 82 89 92 79 73 67 58 59 58 57 72 80 85 83 77 71 69 103 123 146 205 247 255 252 256 261 259 252 248 246 243 241 246 245
196 191 164 201 204 147 117 103 94 89 78 74 84 84 75 66 57 55 56 55 57 60 58 51 63 55 36 45 109 148 239 258 257 258 262 261 267 280 267 258 263 256 249 246
151 146 138 145 129 116 103 96 90 90 91 84 75 77 77 67 53 51 50 54 55 54 55 55 60 50 16 10 33 356 280 277 275 274 274 273 270 270 283 288 278 272 265 258
112 107 97 106 111 106 103 99 92 86 82 82 78 73 73 66 56 52 46 44 48 51 54 55 53 24 354 3 14 345 318 298 291 280 280 279 275 271 269 273 283 286 278 265
95 106 117 106 97 96 97 95 89 82 77 71 72 75 73 68 59 47 40 49 54 51 45 50 43 358 344 8 8 339 322 308 298 289 285 282 279 276 274 271 270 274 282 283
93 91 93 88 87 89 88 88 88 81 77 73 70 73 74 77 69 49 35 40 51 39 21 38 6 324 336 357 351 331 314 309 311 299 292 292 288 284 281 278 275 273 271 270
92 86 88 86 80 80 83 87 88 82 74 72 75 80 76 71 57 38 20 24 47 26 347 333 309 312 339 353 343 315 307 308 312 311 299 292 290 287 285 281 279 277 272 268
98 102 105 104 98 87 77 77 76 73 71 68 70 73 83 94 112 266 288 326 357 343 306 275 275 294 325 325 308 298 297 297 300 298 297 297 295 291 290 286 282 280 279 280
95 98 95 93 94 90 84 77 71 63 50 44 38 25 229 226 229 241 252 272 292 294 278 270 271 277 294 290 294 291 297 300 300 295 295 298 300 297 295 290 288 286 285 283
78 77 76 73 71 74 76 72 62 34 358 354 347 323 293 271 260 255 253 254 248 243 251 258 265 276 281 284 298 293 296 298 298 298 300 300 300 302 301 296 293 290 289 288
63 66 67 62 53 48 45 35 14 334 312 309 285 268 261 260 260 255 248 266 269 260 255 257 258 267 271 282 295 292 293 295 298 299 302 303 304 307 305 302 298 294 294 296
53 54 49 41 29 2 339 330 313 302 297 289 277 265 259 264 267 267 256 246 255 258 251 253 256 263 278 291 288 291 292 296 298 301 304 304 305 305 302 300 298 298 297 295
37 28 7 341 315 297 302 303 295 289 281 274 268 264 260 257 252 247 269 265 257 254 246 248 253 273 290 296 293 294 297 299 303 307 309 310 307 305 305 303 300 300 300 301
324 311 298 292 297 302 298 293 292 288 279 275 272 270 265 269 281 262 247 260 265 272 249 245 274 293 295 292 293 296 297 301 309 312 311 311 310 312 311 311 310 309 310 312
297 294 292 295 295 286 282 289 300 304 307 306 306 304 286 246 248 269 273 268 274 265 243 270 292 303 303 294 293 298 302 308 312 312 311 314 317 317 314 315 314 311 317 320
310 306 299 294 292 296 308 324 328 326 331 331 323 317 315 308 297 293 291 284 282 283 275 284 296 303 308 309 307 310 315 318 320 320 317 318 319 321 322 323 322 323 327 334
352 351 350 351 344 341 340 341 334 323 316 309 302 300 303 307 310 314 318 314 312 309 308 317 327 335 343 344 336 332 333 336 336 330 327 327 326 325 327 330 334 338 344 348
Height
1482 1478 1479 1479 1477 1475 1481 1487 1494 1487 1482 1474 1469 1469 1470 1472 1476 1481 1485 1489 1492 1495 1499 1502 1505 1508 1510 1512 1513 1514 1515 1516 1516 1517 1517 1517 1516 1516 1515 1514 1513 1512 1511 1510
1481 1476 1476 1478 1473 1471 1471 1472 1475 1475 1474 1463 1462 1465 1468 1471 1474 1477 1481 1484 1488 1491 1495 1498 1501 1503 1506 1508 1509 1511 1512 1512 1513 1513 1513 1513 1513 1512 1511 1510 1509 1508 1507 1506
1491 1481 1481 1487 1475 1472 1472 1469 1469 1475 1470 1463 1464 1464 1466 1469 1471 1474 1477 1480 1484 1488 1491 1493 1496 1499 1502 1504 1506 1507 1508 1508 1509 1509 1509 1509 1509 1508 1507 1506 1505 1504 1503 1502
1493 1492 1500 1483 1466 1464 1467 1469 1467 1464 1462 1461 1461 1462 1464 1466 1468 1471 1474 1478 1481 1485 1488 1491 1493 1496 1499 1501 1502 1503 1504 1504 1505 1505 1505 1505 1505 1504 1503 1502 1501 1500 1498 1497
1496 1498 1490 1474 1467 1466 1469 1474 1470 1466 1463 1462 1462 1463 1466 1467 1468 1470 1472 1475 1478 1481 1485 1488 1490 1493 1495 1496 1498 1499 1499 1500 1501 1501 1501 1501 1500 1500 1499 1498 1496 1495 1494 1492
1491 1495 1496 1478 1466 1462 1465 1476 1471 1467 1467 1465 1465 1471 1470 1467 1468 1470 1472 1474 1476 1479 1482 1485 1487 1490 1491 1492 1493 1494 1495 1496 1497 1497 1497 1496 1496 1495 1494 1493 1492 1490 1488 1487
1489 1491 1484 1471 1466 1464 1478 1478 1471 1468 1467 1466 1468 1470 1468 1467 1468 1469 1471 1473 1474 1476 1479 1481 1484 1486 1487 1488 1489 1490 1492 1492 1493 1493 1492 1492 1491 1490 1489 1488 1487 1485 1483 1482
1487 1492 1487 1468 1466 1470 1472 1468 1468 1467 1466 1466 1467 1469 1468 1468 1468 1469 1470 1471 1473 1474 1476 1478 1480 1482 1483 1484 1486 1487 1488 1488 1488 1488 1488 1487 1486 1485 1484 1483 1481 1479 1477 1476
1478 1480 1472 1468 1468 1468 1468 1468 1468 1467 1467 1467 1469 1471 1470 1469 1470 1470 1470 1471 1472 1473 1475 1476 1478 1479 1480 1481 1483 1484 1484 1484 1484 1484 1483 1482 1481 1480 1479 1477 1475 1473 1472 1470
1474 1472 1470 1468 1468 1468 1469 1468 1468 1468 1469 1468 1469 1471 1470 1470 1470 1470 1470 1471 1472 1473 1474 1475 1476 1477 1478 1479 1479 1480 1480 1480 1480 1480 1479 1478 1476 1475 1473 1471 1469 1467 1465 1463
1473 1471 1470 1470 1468 1469 1469 1469 1469 1469 1470 1470 1471 1471 1471 1471 1472 1471 1471 1471 1472 1473 1473 1474 1475 1475 1476 1476 1476 1477 1477 1477 1476 1475 1474 1472 1471 1469 1467 1465 1464 1462 1459 1457
1467 1463 1465 1468 1468 1469 1469 1470 1471 1471 1472 1473 1472 1473 1473 1473 1473 1473 1472 1473 1473 1473 1473 1473 1474 1474 1474 1474 1474 1474 1473 1472 1471 1470 1469 1467 1465 1463 1461 1459 1457 1455 1453 1451
1456 1460 1463 1466 1468 1470 1470 1471 1473 1474 1474 1475 1475 1474 1474 1474 1474 1473 1473 1473 1473 1473 1473 1473 1473 1472 1472 1472 1471 1470 1470 1469 1467 1466 1463 1461 1458 1456 1453 1451 1450 1448 1445 1443
1457 1461 1465 1467 1469 1471 1472 1473 1475 1476 1477 1476 1476 1476 1476 1475 1475 1475 1474 1474 1473 1473 1473 1472 1472 1471 1470 1470 1469 1467 1466 1465 1463 1460 1458 1455 1453 1450 1447 1444 1441 1439 1437 1436
1461 1463 1466 1469 1471 1472 1474 1475 1476 1477 1478 1478 1477 1477 1477 1476 1476 1475 1475 1474 1473 1472 1472 1471 1470 1470 1469 1467 1466 1464 1462 1460 1458 1455 1453 1450 1447 1444 1441 1438 1435 1432 1429 1427
1465 1466 1469 1471 1472 1474 1475 1476 1477 1478 1479 1479 1478 1478 1478 1477 1476 1476 1475 1474 1472 1471 1471 1470 1469 1468 1467 1465 1463 1460 1458 1456 1453 1450 1446 1443 1440 1437 1434 1431 1428 1425 1422 1420
1467 1470 1472 1474 1475 1476 1477 1477 1478 1479 1479 1479 1479 1479 1478 1477 1477 1476 1475 1473 1472 1471 1470 1469 1468 1466 1464 1462 1459 1457 1454 1451 1448 1444 1441 1437 1434 1431 1428 1424 1421 1418 1415 1413
1472 1474 1475 1476 1477 1478 1479 1479 1480 1480 1480 1480 1479 1479 1478 1477 1476 1475 1474 1472 1471 1470 1468 1467 1465 1463 1461 1458 1455 1452 1449 1446 1442 1439 1435 1431 1428 1425 1421 1418 1414 1411 1408 1406
1475 1476 1477 1478 1479 1479 1480 1480 1480 1480 1480 1479 1478 1477 1476 1475 1474 1473 1472 1470 1468 1467 1465 1464 1461 1459 1457 1454 1451 1448 1444 1441 1437 1433 1430 1426 1422 1419 1415 1411 1408 1404 1402 1399
1478 1479 1479 1480 1480 1480 1480 1480 1480 1479 1478 1477 1476 1475 1474 1473 1471 1470 1468 1467 1465 1463 1461 1459 1457 1455 1452 1449 1447 1443 1440 1436 1432 1428 1424 1420 1416 1413 1409 1405 1401 1398 1395 1393
1480 1480 1480 1481 1481 1480 1480 1479 1478 1477 1476 1475 1473 1472 1470 1469 1468 1466 1464 1462 1461 1459 1457 1455 1453 1450 1447 1445 1442 1438 1435 1431 1427 1423 1419 1415 1411 1407 1403 1399 1396 1392 1390 1387
1481 1481 1481 1480 1480 1479 1479 1477 1476 1475 1473 1472 1470 1469 1467 1465 1463 1462 1460 1458 1456 1455 1453 1450 1448 1445 1442 1439 1436 1433 1429 1425 1422 1418 1413 1409 1405 1401 1397 1394 1390 1387 1385 1382
1481 1481 1480 1479 1478 1477 1476 1474 1473 1471 1469 1468 1466 1464 1462 1461 1459 1457 1455 1454 1452 1450 1447 1445 1443 1440 1437 1434 1430 1427 1423 1420 1416 1412 1408 1404 1400 1396 1392 1389 1386 1383 1380 1378
1480 1479 1478 1476 1475 1474 1472 1470 1469 1467 1465 1463 1461 1460 1458 1456 1454 1453 1451 1449 1447 1445 1442 1440 1437 1434 1431 1428 1424 1421 1417 1414 1410 1406 1403 1399 1395 1391 1388 1384 1381 1379 1376 1374
1478 1476 1475 1473 1472 1470 1468 1467 1465 1463 1461 1459 1457 1455 1454 1452 1450 1448 1446 1444 1441 1439 1437 1434 1432 1429 1425 1422 1418 1415 1412 1408 1405 1401 1397 1394 1390 1387 1383 1380 1377 1375 1373 1371
1475 1473 1472 1470 1469 1467 1465 1463 1461 1459 1457 1455 1453 1452 1450 1448 1445 1443 1441 1438 1436 1434 1431 1429 1426 1423 1420 1416 1413 1410 1406 1403 1400 1396 1393 1389 1386 1383 1380 1376 1374 1372 1370 1368
1472 1471 1469 1467 1465 1464 1462 1460 1458 1456 1454 1452 1450 1447 1445 1443 1440 1438 1436 1433 1431 1429 1426 1423 1421 1418 1414 1411 1408 1405 1401 1398 1395 1392 1388 1385 1383 1380 1377 1374 1371 1370 1368 1367